Regional Weather Roundup
Issued by NWS Albany, NY

Home | Current Version | Previous Version | Graphics & Text | Print | Product List | Glossary Off
Versions: 1 2 3 4 5 6 7 8 9 10 11 12 13 14 15 16 17 18 19 20 21 22 23 24 25 26 27 28 29 30 31 32 33 34 35 36 37 38 39 40 41 42 43 44 45 46 47 48 49 50

000
ASUS41 KALY 240910
RWRALY

NEW YORK STATE HOURLY WEATHER ROUNDUP
NATIONAL WEATHER SERVICE ALBANY NY
500 AM EDT SUN MAY 24 2015

NOTE: "FAIR" INDICATES FEW OR NO CLOUDS BELOW 12,000 FEET WITH NO
SIGNIFICANT WEATHER AND/OR NO OBSTRUCTIONS TO VISIBILITY.

NYZ032-033-038>043-046>054-057>066-NYZ062>081-241000-
EAST


CITY           SKY/WX    TMP DP  RH WIND       PRES   REMARKS
ALBANY         MOCLDY    50  34  54 VRB3      30.29R
GLENS FALLS    MOCLDY    48  36  63 S5        30.26R
POUGHKEEPSIE   CLEAR     41  37  86 CALM      30.32S
NEWBURGH       CLEAR     50  36  57 CALM      30.33S
MONTGOMERY     CLEAR     39  36  89 CALM      30.33S
WHITE PLAINS   CLEAR     51  39  63 VRB3      30.33S
ISLIP          CLEAR     50  45  83 SW5       30.33F
NEW YORK CITY  PTCLDY    56  39  53 SW8       30.34S
CENTRAL PARK   CLEAR     57  37  47 W6        30.37S
$$

NYZ005>009-017-018-044>046-055-056-241000-
CENTRAL


CITY           SKY/WX    TMP DP  RH WIND       PRES   REMARKS
FULTON         CLEAR     51  33  50 S7        30.25S
SYRACUSE       PTCLDY    48  35  60 CALM      30.26S
ROME           PTCLDY    39  36  89 SE6       30.29S WCI  35
ELMIRA         CLEAR     35  34  96 CALM      30.33S
BINGHAMTON     CLEAR     48  32  53 SW9       30.31S
MONTICELLO     CLEAR     37  34  87 CALM      30.34S
$$

NYZ026>034-041>043-241000-
NORTH


CITY           SKY/WX    TMP DP  RH WIND       PRES   REMARKS
WATERTOWN      PTCLDY    55  26  32 SW8       30.23R
FORT DRUM      NOT AVBL
MASSENA        PTCLDY    54  32  43 SW14      30.15F
SARANAC LAKE   CLEAR     49  29  46 SW9       30.18R
PLATTSBURGH    PTCLDY    54  30  40 S6        30.13S
$$

NYZ001>004-010>016-019>021-241000-
WEST


CITY           SKY/WX    TMP DP  RH WIND       PRES   REMARKS
NIAGARA FALLS  CLEAR     49  34  56 CALM      30.25S
BUFFALO        PTCLDY    48  30  49 S6        30.26F
DUNKIRK        CLEAR     56  35  45 S9        30.28S
JAMESTOWN      CLEAR     45  32  61 S5        30.32S
WELLSVILLE     CLEAR     49  29  46 SW6       30.33F
ROCHESTER      CLEAR     47  34  60 SW8       30.26S
PENN YAN       CLEAR     51  39  63 SW10      30.28F
$$

             KEY
       WCI = WIND CHILL INDEX
       VSB = VISIBILITY
       HX  = HEAT INDEX
$$



USA.gov is the U.S. government's official web portal to all federal, state and local government web resources and services.